Location: ???????
(55.9569°N, 38.6553°E)
Time: 07:23:52
(UTC+00:00)

SL-16 R/B - Pass Details

Date: 23 May 2024
Orbit: 985 x 1007 km, 99.7° (Epoch: 23 June)

Event Time Altitude Azimuth Distance (km) Brightness Sun altitude
Rises 00:04:22 0° 170° (S) 3,724 5.1 -6.1°
Reaches altitude 10° 00:06:52 10° 174° (S) 2,779 4.5 -5.9°
Maximum altitude 00:13:05 65° 256° (WSW) 1,103 2.6 -5.3°
Drops below altitude 10° 00:19:20 10° 338° (NNW) 2,795 5.3 -4.8°
Sets 00:21:52 0° 342° (NNW) 3,748 6.0 -4.5°
